Regional Weather Roundup
Issued by NWS

Home | Current Version | Previous Version | Text Only | Print | Product List | Glossary On
Versions: 1 2 3 4 5 6 7 8 9 10 11 12 13 14 15 16 17 18 19 20 21 22 23 24 25 26 27 28 29 30 31 32 33 34 35 36 37 38 39 40 41 42 43 44 45 46 47 48 49 50
624
ASUS46 KPQR 041410
RWROR

OREGON REGIONAL WEATHER ROUNDUP
NATIONAL WEATHER SERVICE PORTLAND OR
600 AM PST SUN DEC 04 2016

NOTE: "FAIR" INDICATES FEW OR NO CLOUDS BELOW 12,000 FEET WITH
NO SIGNIFICANT WEATHER AND/OR OBSTRUCTIONS TO VISIBILITY.

ORZ001>013-041500-
NORTHWEST OREGON


CITY           SKY/WX    TMP DP  RH WIND       PRES   REMARKS
ASTORIA        LGT RAIN  46  39  76 NW12      30.07S
NEWPORT        RAIN      46  45  93 NW17G24   30.11S
PORTLAND       LGT RAIN  46  43  89 NW7       30.05F
VANCOUVER WA   LGT RAIN  45  42  89 NW5       30.05S
SCAPPOOSE      LGT RAIN  44  40  85 NW6       30.05S
HILLSBORO      LGT RAIN  44  42  93 NW7       30.04F
AURORA         LGT RAIN  46  44  93 W6        30.05S
MCMINNVILLE    LGT RAIN  46  44  93 W3        30.05F
SALEM          LGT RAIN  46  43  89 SW8       30.05S
CORVALLIS        N/A     48  43  81 S16       30.05F
EUGENE         LGT RAIN  46  42  86 S12       30.09F
$$

ORZ021-028-041500-
SOUTHWEST OREGON


CITY           SKY/WX    TMP DP  RH WIND       PRES   REMARKS
NORTH BEND     CLOUDY    48  46  93 S15       30.13F
BROOKINGS      CLOUDY    46  44  93 SE3       30.24F
ROSEBURG       CLOUDY    46  43  89 S5        30.13F
SEXTON SUMMIT  FOG       34  34 100 S17G26    30.11F VSB 1/4 WCI  23
MEDFORD        CLOUDY    40  39  97 N5        30.21F
$$

ORZ014>016-041-041500-
COLUMBIA GORGE


CITY           SKY/WX    TMP DP  RH WIND       PRES   REMARKS
TROUTDALE      LGT RAIN  46  44  93 W3        30.04F
THE DALLES     LGT RAIN  45  42  89 NW7       29.97S
$$

ORZ029>031-041-044-049-050-061>064-502-503-505>511-041500-
EASTERN OREGON


CITY           SKY/WX    TMP DP  RH WIND       PRES   REMARKS
REDMOND        LGT RAIN  37  32  82 E6        29.96F WCI  32
BEND           CLOUDY    39  32  75 S9G16     29.97F WCI  33
PRINEVILLE     MIX PCPN  34  32  93 CALM      29.98F
KLAMATH FALLS  CLOUDY    31  28  89 S7        30.14F WCI  24
LAKEVIEW       MOCLDY    25  19  80 SE6       30.14F WCI  18
HERMISTON      CLOUDY    45  32  60 W3        29.93F
PENDLETON      CLOUDY    43  32  65 W9        29.90F
JOHN DAY       DRIZZLE   38  34  83 W9        29.96F WCI  32
MEACHAM        CLOUDY    33  31  92 CALM      29.88F
LA GRANDE      CLOUDY    36  27  69 S10       29.94F WCI  28
BAKER CITY     LGT SNOW  30  29  96 W5        29.95F FOG     WCI  25
BURNS          CLOUDY    32  26  78 NE5       30.01F WCI  27
ROME             N/A     40  21  46 S9        30.02F WCI  34
ONTARIO        CLOUDY    32  29  88 SW5       30.02F WCI  27
$$




USA.gov is the U.S. government's official web portal to all federal, state and local government web resources and services.